STARLINK-1329, 45531

Orbit data source: Space-Track

STARLINK-1329, 45531 is a payload satellite owned by SpaceX/Seattle (US) in LEO that was launched on Wed, 22 Apr 2020 UTC via an FALCON 9 launch vehicle from the Air Force Eastern Test Range (AFETR). Payload-class satellites include a variety of spacecraft equipped with specific instruments for various scientific and technological missions. These include communications satellites like Starlink; space stations such as the ISS; scientific satellites like the Hubble; Earth observation satellites from companies like Planet Labs, Umbra, and HawkEye 360; GPS; miniature CubeSats for education and research; and military/defense satellites.

Loading next visibility...
Identifier
45531, 2020-025A
Orbit
LEO
Last TLE update
19 hours ago
Origin
Manufacturer
SpaceX/Seattle
Mission
Operational Commercial Communications
Bus & Motor
STARLINK, Unknown motor
Mass
260 kg wet, ~248 kg dry
Launch date (UTC)
2020-04-22 (5 years ago)
Launch vehicle
FALCON 9
Launch site
Air Force Eastern Test Range (AFETR)
Object type
Payload
Rocket body
Debris
Shape & HBR
Box + 1 Pan, 8.86 m
Radar Cross Section
13.562 m², Large (>1 m²)

Expand to show TLE details & history

TLE from 19 hours ago
0 STARLINK-1329
1 45531U 20025A   25181.63832406  .00000228  00000-0  34169-4 0  9995
2 45531  53.0553 158.1211 0001200  93.2689 266.8437 15.06390857287108
Epoch: 2025-06-30T15:19Z
TLE epoch observation values (Epoch: 2025-06-30T15:19:11.198Z)
Latitude
-0.00006°
Longitude
9.37914°
Altitude
548.165 km
Speed
7.589 km/s
True Right ascension
10h 32m 29s
True Declination
0° 00' 00"
Sunlit
Object was in daylight at epoch
Visualization orbit readout
Latitude
-44.99141°
Longitude
-42.5366°
Altitude
563.227 km
Speed
7.579 km/s
Apparent Right ascension
08h 26m 04s
Apparent Declination
-44° 13' 15"
Sunlit
Object is in daylight
Visualization observer readout
Local Sidereal Time
21:47:37
Azimuth
112.589° SE
Elevation
-74.31°
Doppler factor
1
Orbital elements
Apogee altitude
548.341 km
Perigee altitude
546.679 km
Semi-major axis
6,925.647 km
Eccentricity
0.00012
Inclination
53.0553°
RAAN
158.1211°
Arg. of periapsis
93.2689°
True anomaly
Unknown
Mean anomaly
266.8437°
Eccentric anomaly
Unknown
Mean motion
3.76576 °/min
Orbital period
95.6 mins
BSTAR
0.000034169
Loading maneuver chart data...
Loading SW <> Apogee altitude chart data...
Loading historical data...
Loading historical data...
Loading historical data...
Loading historical data...
Loading historical data...
Loading historical data...
Loading historical data...

STARLINK-1329 Visibility forecast

Observer location: undefined°, undefined°

Span
Click to sort rows by Start time (UTC) header in descending order
Start Az.
Max El. time (UTC)
Max El. Az.
Max El.
End time (UTC)
End Az.
6 mins2025-07-02 00:57:13.315Z226.922° WSW2025-07-02 00:59:13.315Z215.843° SW43.942°2025-07-02 01:03:13.315Z51.071° ENE
4 mins2025-07-02 02:38:13.315Z311.381° NW2025-07-02 02:39:13.315Z331.471° NNW20.084°2025-07-02 02:42:13.315Z24.486° NE
4 mins2025-07-02 05:59:13.315Z346.042° N2025-07-02 06:01:13.315Z23.469° NE19.223°2025-07-02 06:03:13.315Z59.219° ENE
6 mins2025-07-02 07:38:13.315Z311.637° NW2025-07-02 07:41:13.315Z80.202° E44.767°2025-07-02 07:44:13.315Z128.033° SE
|